Location: Chuathbaluk
(61.5726°N, 159.2454°W)
Time: 17:14:37
(UTC+00:00)

ITAMSAT 1 - Pass Details

Date: 23 January 2021
Orbit: 784 x 796 km, 98.9° (Epoch: 05 March)

Event Time Altitude Azimuth Distance (km) Brightness Sun altitude
Rises 03:28:13 0° 153° (SSE) 3,275 10.9 -7.9°
Reaches altitude 10° 03:30:31 10° 152° (SSE) 2,348 10.1 -8.2°
Maximum altitude 03:35:42 78° 67° (ENE) 810 7.6 -8.7°
Drops below altitude 10° 03:40:54 10° 342° (NNW) 2,359 10.1 -9.3°
Sets 03:43:14 0° 341° (NNW) 3,291 10.8 -9.5°
